Location: Dürabuch
(48.2640°N, 11.2185°E)
Time: 22:41:43
(UTC+00:00)

Sich 1 Rocket - Pass Details

Date: 23 May 2024
Orbit: 613 x 649 km, 82.5° (Epoch: 14 June)

Event Time Altitude Azimuth Distance (km) Brightness Sun altitude
Rises 02:31:49 0° 346° (NNW) 2,959 7.5 -7.9°
Reaches altitude 10° 02:34:07 10° 343° (NNW) 2,039 6.6 -7.6°
Maximum altitude 02:38:33 57° 265° (W) 751 3.7 -7.1°
Drops below altitude 10° 02:42:53 10° 187° (S) 2,000 5.7 -6.5°
Sets 02:45:07 0° 184° (S) 2,896 6.6 -6.3°
